[[{"header":{"parameterUnit":"m.s-1","parameterCategory":1,"la1":30.2992,"la2":30.254,"lo1":-89.0895,"lo2":-89.0443,"dy":0.0025,"dx":0.0025,"nx":19,"ny":19,"refTime":"2026-04-16T09:00:00:Z","depth":0,"parameterNumber":2,"parameterNumberName":"U-component_of_WINDS"},"data":[0,0,0,-0.2013,-0.2011,-0.1929,-0.1929,-0.1835,-0.1835,0,0,0,0,0,0,0,0,0,0,0,-0.2044,-0.2044,-0.2013,-0.2011,-0.1929,-0.1929,-0.1836,-0.1835,0,0,0,0,0,0,0,0,0,0,0,-0.2044,-0.2044,-0.2043,-0.2011,-0.1929,-0.1929,-0.1836,-0.1893,0,0,0,0,0,0,0,0,0,0,-0.1971,-0.2007,-0.2044,-0.2043,-0.201,-0.1929,-0.1929,-0.1896,-0.189,-0.1878,0,-0.1869,0,-0.185,-0.1829,-0.1829,0,0,0,-0.2006,-0.2012,-0.1984,-0.2043,-0.201,-0.1929,-0.1965,-0.1892,-0.1885,-0.1869,-0.1867,-0.1863,-0.1849,-0.1829,-0.1828,-0.1777,-0.1777,0,0,-0.201,-0.2033,-0.1988,-0.1979,-0.1993,-0.1967,-0.1962,-0.1888,-0.1887,-0.1867,-0.1861,-0.1847,-0.1828,-0.1828,-0.1777,-0.1777,0,0,0,-0.2027,-0.2036,-0.2009,-0.1984,-0.1968,-0.1965,-0.1959,-0.189,-0.188,-0.186,-0.1846,-0.1828,-0.1827,-0.1777,-0.1777,-0.18,0,0,0,-0.2029,-0.2046,-0.2012,-0.2025,-0.197,-0.1928,-0.1963,-0.1885,-0.1876,-0.1847,-0.1828,-0.1826,-0.1777,-0.1777,-0.1799,-0.1807,0,0,0,-0.2047,-0.2048,-0.2038,-0.2026,-0.1992,-0.1929,-0.1914,-0.1882,-0.1868,-0.1829,-0.1826,-0.1777,-0.1777,-0.1799,-0.1806,-0.1801,0,0,0,-0.2072,-0.2059,-0.2039,-0.202,-0.1993,-0.1944,-0.1914,-0.1876,-0.1846,-0.1827,-0.1777,-0.1777,-0.1799,-0.1805,-0.18,-0.1801,-0.1803,0,0,-0.2069,-0.206,-0.2046,-0.2026,-0.1987,-0.1955,-0.1919,-0.1869,-0.1844,-0.1801,-0.1799,-0.18,-0.1806,-0.1801,-0.1808,-0.181,0,0,0,-0.2053,-0.2044,-0.2029,-0.2001,-0.1964,-0.1932,-0.1886,-0.1868,-0.183,-0.1826,-0.1796,-0.1799,-0.1795,-0.1794,-0.1796,-0.1791,-0.1777,-0.1777,-0.1777,-0.208,-0.205,-0.2027,-0.1988,-0.1962,-0.1915,-0.1891,-0.1858,-0.1834,-0.1828,-0.1815,-0.1823,-0.1823,-0.1824,-0.182,-0.1813,-0.1813,-0.1813,-0.1813,-0.2073,-0.2055,-0.2026,-0.1993,-0.1961,-0.1933,-0.1888,-0.1872,-0.1841,-0.183,-0.1825,-0.1815,-0.1827,-0.1822,-0.1814,-0.1814,-0.1814,-0.1814,-0.1814,-0.2087,-0.2074,-0.2053,-0.2011,-0.1983,-0.1943,-0.1916,-0.1888,-0.1861,-0.1856,-0.184,-0.1839,-0.1836,-0.185,-0.185,-0.185,-0.185,-0.185,-0.185,-0.211,-0.2086,-0.2066,-0.2027,-0.2006,-0.1976,-0.193,-0.1909,-0.1879,-0.1861,-0.186,-0.1838,-0.1834,-0.1834,-0.1851,-0.1851,-0.1851,-0.1851,-0.1851,-0.2114,-0.2109,-0.2079,-0.2058,-0.2011,-0.1985,-0.195,-0.191,-0.1889,-0.1877,-0.1856,-0.1857,-0.1846,-0.1844,-0.1844,-0.1862,-0.1862,-0.1862,-0.1862,-0.2126,-0.2118,-0.2081,-0.2051,-0.2019,-0.1985,-0.1952,-0.1917,-0.188,-0.1865,-0.1858,-0.1855,-0.1855,-0.1844,-0.1842,-0.1841,-0.1858,-0.1858,-0.1858,-0.2127,-0.2114,-0.2092,-0.2056,-0.2017,-0.1985,-0.1953,-0.192,-0.1876,-0.1858,-0.1853,-0.1853,-0.1848,-0.1848,-0.1828,-0.1826,-0.1824,0,0]},{"header":{"parameterUnit":"m.s-1","parameterCategory":1,"la1":30.2992,"la2":30.254,"lo1":-89.0895,"lo2":-89.0443,"dy":0.0025,"dx":0.0025,"nx":19,"ny":19,"refTime":"2026-04-16T09:00:00:Z","depth":0,"parameterNumber":3,"parameterNumberName":"V-component_of_WINDS"},"data":[0,0,0,4.2808,4.2808,4.2822,4.2822,4.2859,4.286,0,0,0,0,0,0,0,0,0,0,0,4.2816,4.2817,4.2808,4.2809,4.2822,4.2822,4.2859,4.286,0,0,0,0,0,0,0,0,0,0,0,4.2816,4.2817,4.2818,4.2809,4.2822,4.2822,4.2859,4.2842,0,0,0,0,0,0,0,0,0,0,4.2825,4.2845,4.2817,4.2818,4.2809,4.2822,4.2822,4.2841,4.2843,4.2862,0,4.2882,0,4.2872,4.2864,4.2864,0,0,0,4.2799,4.2843,4.2836,4.2818,4.2809,4.2822,4.2813,4.2842,4.2844,4.2865,4.2883,4.2883,4.2872,4.2864,4.2864,4.3004,4.3005,0,0,4.2799,4.2825,4.2834,4.2838,4.2837,4.2813,4.2814,4.2843,4.2864,4.2883,4.2884,4.2873,4.2864,4.2865,4.3003,4.3004,0,0,0,4.2803,4.2825,4.2816,4.2837,4.2838,4.2814,4.2815,4.2863,4.2857,4.2884,4.2874,4.2865,4.2865,4.3002,4.3004,4.3082,0,0,0,4.2802,4.2828,4.2817,4.2833,4.2838,4.2851,4.2834,4.2855,4.2858,4.2873,4.2865,4.2866,4.3001,4.3003,4.3077,4.3115,0,0,0,4.2811,4.2829,4.2835,4.2835,4.2842,4.2849,4.2846,4.2855,4.2852,4.2864,4.2866,4.3,4.3002,4.3073,4.3108,4.3158,0,0,0,4.2829,4.2906,4.2837,4.2918,4.2842,4.2898,4.2845,4.2886,4.2906,4.2865,4.3001,4.3003,4.3072,4.3103,4.3154,4.3205,4.3229,0,0,4.2941,4.292,4.2966,4.2904,4.298,4.2894,4.2981,4.2974,4.2951,4.2988,4.2991,4.3079,4.3107,4.3157,4.3356,4.3376,0,0,0,4.301,4.3043,4.3057,4.3077,4.3073,4.3073,4.305,4.3047,4.3076,4.2976,4.3111,4.3127,4.3155,4.3178,4.3194,4.3216,4.3016,4.3015,4.3015,4.3207,4.3172,4.3244,4.3211,4.3232,4.3206,4.3219,4.3211,4.3171,4.3204,4.3214,4.3339,4.3367,4.3379,4.3402,4.3239,4.324,4.324,4.324,4.3366,4.3406,4.335,4.34,4.3364,4.3405,4.3384,4.3354,4.3387,4.3329,4.3352,4.3289,4.3401,4.342,4.3246,4.3245,4.3244,4.3243,4.3243,4.3489,4.3502,4.3497,4.3521,4.3544,4.3508,4.3542,4.3507,4.3475,4.3498,4.3504,4.3503,4.3496,4.3504,4.3504,4.3505,4.3505,4.3506,4.3506,4.3619,4.361,4.3643,4.3645,4.3652,4.3657,4.3632,4.3639,4.3637,4.3609,4.3609,4.3565,4.3419,4.3382,4.3512,4.3511,4.351,4.351,4.3509,4.3791,4.3746,4.3796,4.3804,4.3802,4.3825,4.3781,4.3797,4.3797,4.3815,4.3766,4.3664,4.3641,4.3628,4.3597,4.3774,4.3774,4.3774,4.3774,4.3894,4.3878,4.3921,4.3935,4.3944,4.3909,4.3966,4.3947,4.3921,4.3919,4.3889,4.3845,4.3833,4.3817,4.3799,4.377,4.3988,4.3988,4.3988,4.3997,4.398,4.4036,4.4008,4.4004,4.4001,4.4053,4.4071,4.4033,4.3996,4.3916,4.3907,4.3837,4.3816,4.3777,4.3751,4.3696,0,0]}]]